FW7979 Weather Reports


time (UTC)temp
F
wind
direction
speed
knots
gust
knots
rain 1hr
in
rain 24hr
in
rain mn
in
humidity
%
barometer
mb
20240614132517 73 0 1.7 4.3 0.00 0.00 0.00 77 1012.4
20240614132018 73 184 0.0 3.5 0.00 0.00 0.00 78 1012.5
20240614131535 73 0 0.0 3.5 0.00 0.00 0.00 78 1012.5
20240614131018 73 0 0.0 3.5 0.00 0.00 0.00 78 1012.5
20240614130517 73 190 0.9 3.5 0.00 0.00 0.00 78 1012.5
20240614130030 72 0 0.0 3.5 0.00 0.00 0.00 79 1012.6
20240614125518 72 180 0.9 4.3 0.00 0.00 0.00 78 1012.6
20240614125018 72 180 0.9 4.3 0.00 0.00 0.00 79 1012.7
20240614124531 71 265 0.9 4.3 0.00 0.00 0.00 81 1012.8
20240614124018 71 0 0.0 3.5 0.00 0.00 0.00 80 1012.8
20240614123517 71 180 0.0 3.5 0.00 0.00 0.00 80 1013.0
20240614123029 71 0 0.0 0.0 0.00 0.00 0.00 80 1013.0
20240614122519 71 0 0.0 0.0 0.00 0.00 0.00 80 1012.9
20240614122021 70 0 0.0 1.7 0.00 0.00 0.00 80 1012.9
20240614121538 70 0 0.0 3.5 0.00 0.00 0.00 81 1012.8
20240614121017 70 0 0.0 4.3 0.00 0.00 0.00 81 1013.0
20240614120517 70 155 0.9 5.2 0.00 0.00 0.00 81 1012.9
20240614120026 69 190 0.9 5.2 0.00 0.00 0.00 82 1012.9
20240614115518 69 189 0.0 3.5 0.00 0.00 0.00 82 1012.8
20240614115018 69 189 0.9 3.5 0.00 0.00 0.00 82 1012.9
20240614114522 68 189 0.0 4.3 0.00 0.00 0.00 83 1012.9
20240614114025 68 189 1.7 4.3 0.00 0.00 0.00 83 1012.9
20240614113518 67 0 0.0 0.0 0.00 0.00 0.00 86 1012.8
20240614113018 67 0 0.0 0.0 0.00 0.00 0.00 86 1012.8
20240614112519 67 0 0.0 0.0 0.00 0.00 0.00 87 1012.7
20240614112018 67 0 0.0 0.0 0.00 0.00 0.00 87 1012.7
20240614111521 66 0 0.0 0.0 0.00 0.00 0.00 87 1012.7
20240614111018 66 0 0.0 0.0 0.00 0.00 0.00 88 1012.6
20240614110519 66 0 0.0 0.0 0.00 0.00 0.00 88 1012.6
20240614110022 65 0 0.0 3.5 0.00 0.00 0.00 89 1012.4
20240614105522 65 0 0.0 3.5 0.00 0.00 0.00 89 1012.5
20240614105018 65 190 0.0 1.7 0.00 0.00 0.00 90 1012.4
20240614104527 64 0 0.0 0.0 0.00 0.00 0.00 91 1012.4
20240614104018 64 0 0.0 0.0 0.00 0.00 0.00 91 1012.5
20240614103519 64 0 0.0 0.0 0.00 0.00 0.00 92 1012.5
20240614103023 64 0 0.0 0.0 0.00 0.00 0.00 92 1012.5
20240614102518 64 0 0.0 0.0 0.00 0.00 0.00 91 1012.7
20240614102017 64 0 0.0 0.0 0.00 0.00 0.00 91 1012.6
20240614101539 64 0 0.0 0.0 0.00 0.00 0.00 91 1012.7
20240614101018 64 0 0.0 0.0 0.00 0.00 0.00 91 1012.7
20240614100518 64 0 0.0 0.0 0.00 0.00 0.00 91 1012.5
20240614100026 64 0 0.0 0.0 0.00 0.00 0.00 91 1012.4
20240614095517 64 0 0.0 0.0 0.00 0.00 0.00 91 1012.5
20240614095021 64 0 0.0 0.0 0.00 0.00 0.00 91 1012.4
20240614094526 64 0 0.0 0.0 0.00 0.00 0.00 91 1012.5
20240614094017 64 0 0.0 0.0 0.00 0.00 0.00 91 1012.6
20240614093516 64 0 0.0 0.0 0.00 0.00 0.00 91 1012.6
20240614093023 64 0 0.0 0.0 0.00 0.00 0.00 91 1012.7
20240614092518 64 0 0.0 0.0 0.00 0.00 0.00 90 1012.8
20240614092018 64 0 0.0 0.0 0.00 0.00 0.00 90 1012.8
20240614091525 64 0 0.0 0.0 0.00 0.00 0.00 90 1012.8
20240614091018 64 0 0.0 0.0 0.00 0.00 0.00 90 1012.6
20240614090518 64 0 0.0 0.0 0.00 0.00 0.00 90 1012.7
20240614090032 64 0 0.0 0.0 0.00 0.00 0.00 90 1012.7
20240614085517 64 0 0.0 0.0 0.00 0.00 0.00 89 1012.7
20240614085018 64 0 0.0 0.0 0.00 0.00 0.00 89 1012.7
20240614084520 64 0 0.0 0.0 0.00 0.00 0.00 89 1012.7
20240614084016 64 0 0.0 0.0 0.00 0.00 0.00 89 1012.7
20240614083517 64 0 0.0 0.0 0.00 0.00 0.00 89 1012.6
20240614083023 64 0 0.0 0.0 0.00 0.00 0.00 89 1012.7
20240614082517 64 0 0.0 0.0 0.00 0.00 0.00 89 1012.6
20240614082016 64 0 0.0 0.0 0.00 0.00 0.00 89 1012.6
20240614081524 64 0 0.0 0.0 0.00 0.00 0.00 89 1012.7
20240614081016 64 0 0.0 0.0 0.00 0.00 0.00 89 1012.5
20240614080516 64 0 0.0 0.0 0.00 0.00 0.00 89 1012.5
20240614080028 64 0 0.0 0.0 0.00 0.00 0.00 89 1012.5
20240614075518 64 0 0.0 0.0 0.00 0.00 0.00 89 1012.5
20240614075018 64 0 0.0 0.0 0.00 0.00 0.00 89 1012.4
20240614074523 64 0 0.0 0.0 0.00 0.00 0.00 89 1012.5
20240614074017 64 0 0.0 0.0 0.00 0.00 0.00 88 1012.5
20240614073520 64 0 0.0 0.0 0.00 0.00 0.00 88 1012.6
20240614073024 64 0 0.0 0.9 0.00 0.00 0.00 88 1012.8
20240614072517 64 0 0.0 0.9 0.00 0.00 0.00 88 1012.8
20240614072018 64 0 0.0 0.9 0.00 0.00 0.00 88 1012.8
20240614071520 64 190 0.0 0.9 0.00 0.00 0.00 88 1012.9
20240614071019 64 0 0.0 0.9 0.00 0.00 0.00 88 1012.9
20240614070517 64 0 0.0 0.9 0.00 0.00 0.00 88 1012.9
20240614070028 65 0 0.0 0.9 0.00 0.00 0.00 87 1013.1
20240614065518 65 0 0.0 0.9 0.00 0.00 0.00 88 1013.0
20240614065021 65 0 0.0 0.9 0.00 0.00 0.00 87 1013.1
20240614064524 65 0 0.0 0.9 0.00 0.00 0.00 87 1013.1
20240614064018 65 0 0.0 0.9 0.00 0.00 0.00 87 1013.3
20240614063518 65 0 0.0 0.9 0.00 0.00 0.00 87 1013.2
20240614063017 65 190 0.0 1.7 0.00 0.00 0.00 87 1013.1
20240614062516 65 0 0.0 1.7 0.00 0.00 0.00 87 1013.2
20240614062017 65 0 0.0 1.7 0.00 0.00 0.00 87 1013.2
20240614061537 65 190 0.0 1.7 0.00 0.00 0.00 87 1013.2
20240614061017 65 190 0.0 1.7 0.00 0.00 0.00 86 1013.3
20240614060516 65 0 0.0 0.0 0.00 0.00 0.00 86 1013.3
20240614060022 65 0 0.0 0.0 0.00 0.00 0.00 86 1013.4
20240614055518 65 0 0.0 0.0 0.00 0.00 0.00 86 1013.5
20240614055017 65 0 0.0 0.0 0.00 0.00 0.00 86 1013.5
20240614054523 65 0 0.0 0.0 0.00 0.00 0.00 86 1013.7
20240614054019 65 0 0.0 0.0 0.00 0.00 0.00 86 1013.5
20240614053518 65 0 0.0 0.0 0.00 0.00 0.00 86 1013.7
20240614053023 65 0 0.0 0.0 0.00 0.00 0.00 85 1013.8
20240614052521 65 0 0.0 0.0 0.00 0.00 0.00 85 1014.0
20240614052017 65 0 0.0 0.0 0.00 0.00 0.00 85 1013.9
20240614051521 65 0 0.0 0.0 0.00 0.00 0.00 85 1014.0
20240614051018 65 0 0.0 0.0 0.00 0.00 0.00 85 1014.1
20240614050517 65 0 0.0 0.0 0.00 0.00 0.00 85 1014.1
20240614050023 65 0 0.0 0.0 0.00 0.00 0.00 85 1014.2
20240614045516 66 0 0.0 0.0 0.00 0.00 0.00 84 1014.2
20240614045017 66 0 0.0 0.0 0.00 0.00 0.00 84 1014.2
20240614044521 66 0 0.0 0.0 0.00 0.00 0.00 84 1014.2
20240614044020 66 0 0.0 0.0 0.00 0.00 0.00 84 1014.2
20240614043518 66 0 0.0 0.0 0.00 0.00 0.00 84 1014.4
20240614043022 66 0 0.0 0.0 0.00 0.00 0.00 83 1014.4
20240614042517 66 0 0.0 0.0 0.00 0.00 0.00 83 1014.4
20240614042018 66 0 0.0 0.0 0.00 0.00 0.00 83 1014.3
20240614041524 66 0 0.0 0.0 0.00 0.00 0.00 83 1014.3
20240614041018 66 0 0.0 0.0 0.00 0.00 0.00 83 1014.5
20240614040518 66 0 0.0 0.0 0.00 0.00 0.00 83 1014.6
20240614040028 66 0 0.0 0.0 0.00 0.00 0.00 83 1014.7
20240614035518 66 0 0.0 0.0 0.00 0.00 0.00 82 1014.7
20240614035017 66 0 0.0 0.0 0.00 0.00 0.00 82 1014.6
20240614034521 67 0 0.0 0.0 0.00 0.00 0.00 82 1014.7
20240614034016 67 0 0.0 0.0 0.00 0.00 0.00 82 1014.6
20240614033521 67 0 0.0 0.0 0.00 0.00 0.00 81 1014.7
20240614033021 67 0 0.0 0.0 0.00 0.00 0.00 80 1014.8
20240614032518 67 0 0.0 0.0 0.00 0.00 0.00 80 1014.7
20240614032018 68 0 0.0 0.0 0.00 0.00 0.00 80 1014.7
20240614031530 68 0 0.0 0.0 0.00 0.00 0.00 79 1014.7
20240614031018 68 0 0.0 0.0 0.00 0.00 0.00 79 1014.8
20240614030517 68 0 0.0 0.0 0.00 0.00 0.00 79 1014.6
20240614030021 68 0 0.0 1.7 0.00 0.00 0.00 78 1014.6
20240614025518 68 0 0.0 1.7 0.00 0.00 0.00 78 1014.6
20240614025020 69 0 0.0 1.7 0.00 0.00 0.00 78 1014.6
20240614024534 69 0 0.0 2.6 0.00 0.00 0.00 77 1014.7
20240614024019 69 0 0.0 2.6 0.00 0.00 0.00 77 1014.7
20240614023519 69 190 0.9 2.6 0.00 0.00 0.00 77 1014.8
20240614023020 69 0 0.0 2.6 0.00 0.00 0.00 76 1014.9
20240614022516 69 190 0.0 2.6 0.00 0.00 0.00 76 1015.0
20240614022019 69 190 0.0 1.7 0.00 0.00 0.00 76 1014.9
20240614021531 70 0 0.0 1.7 0.00 0.00 0.00 76 1015.0
20240614021017 70 0 0.0 2.6 0.00 0.00 0.00 76 1015.0
20240614020522 70 190 0.0 2.6 0.00 0.00 0.00 75 1015.1
20240614020021 70 0 0.9 2.6 0.00 0.00 0.00 75 1015.2
20240614015518 70 190 0.9 2.6 0.00 0.00 0.00 74 1015.2
20240614015017 70 190 0.0 3.5 0.00 0.00 0.00 74 1015.2
20240614014520 71 0 0.0 3.5 0.00 0.00 0.00 73 1015.1
20240614014018 71 0 0.0 0.0 0.00 0.00 0.00 73 1015.2
20240614013517 71 0 0.0 3.5 0.00 0.00 0.00 72 1015.2
20240614013035 71 0 0.0 5.2 0.00 0.00 0.00 72 1015.3
20240614012521 71 0 0.0 5.2 0.00 0.00 0.00 71 1015.2
20240614012020 71 184 0.9 2.6 0.00 0.00 0.00 70 1015.0
20240614011530 72 172 0.0 2.6 0.00 0.00 0.00 70 1015.0
20240614011018 72 172 0.9 2.6 0.00 0.00 0.00 69 1015.0
20240614010518 72 172 0.0 2.6 0.00 0.00 0.00 68 1014.9
20240614010020 72 0 0.9 2.6 0.00 0.00 0.00 67 1015.0
20240614005518 73 183 0.0 4.3 0.00 0.00 0.00 66 1015.1
20240614005017 73 183 0.9 4.3 0.00 0.00 0.00 65 1015.0
20240614004521 73 183 0.9 3.5 0.00 0.00 0.00 65 1015.0
20240614004017 73 183 0.0 3.5 0.00 0.00 0.00 64 1014.9
20240614003517 73 183 0.0 3.5 0.00 0.00 0.00 64 1014.9
20240614003023 74 183 0.0 3.5 0.00 0.00 0.00 63 1014.8
20240614002518 74 0 0.0 0.0 0.00 0.00 0.00 63 1014.9
20240614002021 74 0 0.0 0.9 0.00 0.00 0.00 62 1015.0
20240614001535 74 0 0.0 1.7 0.00 0.00 0.00 62 1015.1
20240614001017 75 183 0.0 1.7 0.00 0.00 0.00 62 1015.0
20240614000517 75 183 0.0 1.7 0.00 0.00 0.00 62 1015.3
20240614000040 75 0 0.0 1.7 0.00 0.00 0.00 61 1015.2
20240613235518 75 183 0.0 1.7 0.00 0.00 0.00 61 1015.2
20240613235016 76 183 0.0 2.6 0.00 0.00 0.00 61 1015.3
20240613234554 76 185 0.9 2.6 0.00 0.00 0.00 61 1015.3
20240613234017 76 0 0.0 2.6 0.00 0.00 0.00 60 1015.3
20240613233518 77 0 0.9 3.5 0.00 0.00 0.00 59 1015.3
20240613233035 77 191 0.9 3.5 0.00 0.00 0.00 59 1015.2
20240613232521 77 195 0.9 3.5 0.00 0.00 0.00 58 1015.2
20240613232018 77 195 0.9 5.2 0.00 0.00 0.00 58 1015.1
20240613231532 78 195 0.9 5.2 0.00 0.00 0.00 58 1015.2
20240613231018 78 230 1.7 5.2 0.00 0.00 0.00 57 1015.0
20240613230521 78 182 1.7 4.3 0.00 0.00 0.00 58 1015.0
20240613230058 78 181 1.7 4.3 0.00 0.00 0.00 57 1014.9
20240613225517 78 0 1.7 4.3 0.00 0.00 0.00 57 1014.9
20240613225018 78 194 0.9 4.3 0.00 0.00 0.00 57 1014.9
20240613224557 78 209 1.7 4.3 0.00 0.00 0.00 57 1014.8
20240613224020 79 187 1.7 4.3 0.00 0.00 0.00 57 1014.7
20240613223523 79 237 1.7 4.3 0.00 0.00 0.00 57 1014.7
20240613223028 79 159 1.7 6.1 0.00 0.00 0.00 56 1014.7
20240613222519 79 167 1.7 6.1 0.00 0.00 0.00 56 1014.7
20240613222019 79 188 0.9 5.2 0.00 0.00 0.00 57 1014.9
20240613221542 79 182 1.7 6.1 0.00 0.00 0.00 56 1014.7
20240613221016 80 270 1.7 6.1 0.00 0.00 0.00 55 1014.7
20240613220519 80 163 1.7 4.3 0.00 0.00 0.00 55 1014.6
20240613220029 80 184 1.7 5.2 0.00 0.00 0.00 55 1014.6
20240613215518 80 180 1.7 5.2 0.00 0.00 0.00 55 1014.5
20240613215017 80 192 1.7 5.2 0.00 0.00 0.00 54 1014.6
20240613214529 80 217 0.9 5.2 0.00 0.00 0.00 55 1014.5
20240613214018 80 208 2.6 5.2 0.00 0.00 0.00 54 1014.5
20240613213519 80 157 1.7 6.1 0.00 0.00 0.00 54 1014.5
20240613213036 80 236 1.7 6.1 0.00 0.00 0.00 54 1014.4
20240613212518 81 190 1.7 5.2 0.00 0.00 0.00 54 1014.4
20240613212021 81 205 0.9 8.7 0.00 0.00 0.00 54 1014.5
20240613211523 81 182 3.5 8.7 0.00 0.00 0.00 53 1014.5
20240613211016 81 175 1.7 4.3 0.00 0.00 0.00 53 1014.6
20240613210518 81 240 0.9 7.0 0.00 0.00 0.00 55 1014.4
20240613210022 80 173 2.6 7.0 0.00 0.00 0.00 56 1014.6
20240613205518 80 161 1.7 7.0 0.00 0.00 0.00 56 1014.6
20240613205016 80 184 2.6 7.0 0.00 0.00 0.00 56 1014.7
20240613204523 81 190 1.7 5.2 0.00 0.00 0.00 57 1014.6
20240613204016 81 148 1.7 7.0 0.00 0.00 0.00 56 1014.7
20240613203516 81 214 1.7 7.0 0.00 0.00 0.00 57 1014.7
20240613203020 81 182 1.7 5.2 0.00 0.00 0.00 57 1014.7
20240613202520 81 302 0.9 5.2 0.00 0.00 0.00 59 1014.7
20240613202017 81 178 1.7 5.2 0.00 0.00 0.00 58 1014.7
20240613201519 81 183 2.6 5.2 0.00 0.00 0.00 58 1014.6
20240613201016 81 207 1.7 5.2 0.00 0.00 0.00 58 1014.7
20240613200516 81 243 2.6 5.2 0.00 0.00 0.00 59 1014.6
20240613200023 81 236 1.7 5.2 0.00 0.00 0.00 59 1014.7
20240613195517 81 191 2.6 5.2 0.00 0.00 0.00 58 1014.8
20240613195016 81 242 1.7 6.1 0.00 0.00 0.00 59 1015.0
20240613194523 81 184 0.9 6.1 0.00 0.00 0.00 61 1015.0
20240613194018 81 171 0.9 5.2 0.00 0.00 0.00 59 1015.0
20240613193518 82 175 1.7 4.3 0.00 0.00 0.00 57 1015.0
20240613193031 82 199 0.9 3.5 0.00 0.00 0.00 54 1015.1
20240613192518 82 238 0.9 7.0 0.00 0.00 0.00 55 1015.2
20240613192017 82 190 0.9 7.0 0.00 0.00 0.00 56 1015.0
20240613191521 82 180 1.7 7.0 0.00 0.00 0.00 55 1015.0
20240613191016 82 185 0.9 5.2 0.00 0.00 0.00 56 1015.1
20240613190515 81 185 1.7 6.1 0.00 0.00 0.00 54 1015.1
20240613190017 81 178 1.7 6.1 0.00 0.00 0.00 55 1015.2
20240613185515 81 0 0.0 3.5 0.00 0.00 0.00 57 1015.1
20240613185015 81 0 0.9 4.3 0.00 0.00 0.00 54 1015.2
20240613184526 81 185 1.7 4.3 0.00 0.00 0.00 54 1015.2
20240613184015 80 223 0.9 3.5 0.00 0.00 0.00 56 1015.3
20240613183515 80 0 0.9 2.6 0.00 0.00 0.00 56 1015.3
20240613183030 80 0 0.0 3.5 0.00 0.00 0.00 56 1015.3
20240613182515 80 196 0.0 3.5 0.00 0.00 0.00 56 1015.4
20240613182016 80 0 0.9 3.5 0.00 0.00 0.00 56 1015.4
20240613181521 80 195 0.9 4.3 0.00 0.00 0.00 55 1015.3
20240613181016 80 195 1.7 4.3 0.00 0.00 0.00 55 1015.4
20240613180557 80 190 0.9 4.3 0.00 0.00 0.00 58 1015.4
20240613180038 80 0 0.0 4.3 0.00 0.00 0.00 61 1015.3
20240613175517 80 211 0.9 4.3 0.00 0.00 0.00 61 1015.4
20240613175018 80 196 1.7 3.5 0.00 0.00 0.00 60 1015.4
20240613174540 80 0 0.0 3.5 0.00 0.00 0.00 61 1015.4
20240613174018 80 0 0.0 4.3 0.00 0.00 0.00 63 1015.4
20240613173516 79 188 0.9 4.3 0.00 0.00 0.00 62 1015.5
20240613173026 80 186 1.7 4.3 0.00 0.00 0.00 62 1015.5
20240613172516 79 227 0.9 5.2 0.00 0.00 0.00 64 1015.5
20240613172017 79 239 0.9 5.2 0.00 0.00 0.00 65 1015.5
20240613171523 79 186 0.9 5.2 0.00 0.00 0.00 65 1015.6
20240613171015 79 190 0.9 5.2 0.00 0.00 0.00 65 1015.7
20240613170520 79 186 0.9 3.5 0.00 0.00 0.00 66 1015.7
20240613170023 79 0 0.0 3.5 0.00 0.00 0.00 67 1015.7
20240613165518 79 186 1.7 3.5 0.00 0.00 0.00 65 1015.8
20240613165018 79 183 0.0 3.5 0.00 0.00 0.00 65 1015.7
20240613164534 79 204 0.9 3.5 0.00 0.00 0.00 63 1015.8
20240613164020 79 0 0.0 4.3 0.00 0.00 0.00 61 1015.8
20240613163515 79 0 0.0 4.3 0.00 0.00 0.00 55 1015.8
20240613163017 79 0 0.0 4.3 0.00 0.00 0.00 56 1015.9
20240613162514 79 0 0.9 4.3 0.00 0.00 0.00 56 1015.9
20240613162015 79 0 0.9 3.5 0.00 0.00 0.00 57 1016.0
20240613161527 78 0 0.9 3.5 0.00 0.00 0.00 60 1016.1
20240613161016 78 205 0.0 3.5 0.00 0.00 0.00 63 1016.0
20240613160519 78 205 0.9 4.3 0.00 0.00 0.00 60 1015.9
20240613160046 78 210 0.9 4.3 0.00 0.00 0.00 59 1015.9
20240613155518 78 161 0.9 4.3 0.00 0.00 0.00 57 1015.9
20240613155022 77 0 0.0 2.6 0.00 0.00 0.00 57 1015.9
20240613154524 77 188 0.0 2.6 0.00 0.00 0.00 56 1016.0
20240613154019 77 0 0.0 2.6 0.00 0.00 0.00 58 1016.0
20240613153521 77 188 0.9 5.2 0.00 0.00 0.00 54 1016.1
20240613153033 77 188 0.0 5.2 0.00 0.00 0.00 63 1016.1
20240613152518 77 188 0.9 5.2 0.00 0.00 0.00 60 1016.0
20240613152018 77 202 0.0 2.6 0.00 0.00 0.00 64 1016.2
20240613151526 76 340 0.9 2.6 0.00 0.00 0.00 62 1016.1
20240613151021 76 0 0.9 2.6 0.00 0.00 0.00 63 1016.2
20240613150519 76 340 0.0 2.6 0.00 0.00 0.00 64 1016.2
20240613150023 76 0 0.0 2.6 0.00 0.00 0.00 62 1016.4
20240613145522 75 340 0.9 2.6 0.00 0.00 0.00 62 1016.4
20240613145019 75 340 0.0 3.5 0.00 0.00 0.00 65 1016.4
20240613144526 75 0 0.9 3.5 0.00 0.00 0.00 65 1016.5
20240613144018 74 342 0.9 2.6 0.00 0.00 0.00 67 1016.4
20240613143520 74 342 0.0 2.6 0.00 0.00 0.00 68 1016.4
20240613143024 74 0 0.0 2.6 0.00 0.00 0.00 68 1016.4
20240613142518 74 343 0.0 2.6 0.00 0.00 0.00 69 1016.4
20240613142019 73 0 0.0 2.6 0.00 0.00 0.00 66 1016.5
20240613141526 73 0 0.0 1.7 0.00 0.00 0.00 67 1016.4
20240613141023 72 0 0.0 1.7 0.00 0.00 0.00 67 1016.6
20240613140519 72 345 0.0 1.7 0.00 0.00 0.00 70 1016.6
20240613140030 71 0 0.0 2.6 0.00 0.00 0.00 75 1016.7
20240613135519 71 0 0.0 2.6 0.00 0.00 0.00 73 1016.7
20240613135020 70 345 0.0 0.9 0.00 0.00 0.00 74 1016.9
20240613134525 70 0 0.0 0.9 0.00 0.00 0.00 73 1017.0
20240613134019 69 0 0.0 0.9 0.00 0.00 0.00 76 1017.1
20240613133520 69 0 0.0 0.9 0.00 0.00 0.00 76 1017.0
20240613133028 68 0 0.0 0.9 0.00 0.00 0.00 81 1017.0